Tracking 19176 objects as of 28-May-2018
HD Live streaming from Space Station
objects crossing your sky now

COSMOS 1791

Track COSMOS 1791 now!
10-day predictions
COSMOS 1791 is classified as:


NORAD ID: 17066
Int'l Code: 1986-086A
Perigee: 955.9 km
Apogee: 1,016.3 km
Inclination: 82.9 °
Period: 104.7 minutes
Semi major axis: 7357 km
RCS: 2.0797 m2 (large)
Launch date: November 13, 1986
Source: Commonwealth of Independent States (former USSR) (CIS)
Launch site: PLESETSK MISSILE AND SPACE COMPLEX (PKMTR)
aabbcc
Your satellite tracking list
Your tracking list is empty




NASA's NSSDC Master Catalog

Two Line Element Set (TLE):
1 17066U 86086A   18147.46947543 +.00000016 +00000-0 +25568-6 0  9990
2 17066 082.9467 283.0928 0041099 179.5201 244.0395 13.75763873583540
Source of the keplerian elements: AFSPC